Погода в Маминском

Россия / Свердловская область     56°26′22″N   61°24′10″E
темп.,
°C
ветер,
м/с
пор.,
м/с
влажн.,
%
обл.,
%
осадки,
мм/ч
давл.,
гПа
погр.,
м
29 ноября, пн
пн2923:00−6ююз397592 0.0 1023118
02:00−6ююз3976100 0.0 1022136
05:00−6ююз397686 0.0 1022129
08:00−4ююз4106979 0.0 1020203
11:00−1юз41173100 0.0 1021421
14:000юз4982100 0.0 1021331
17:00−3зюз369255 0.0 102190
20:00−1зюз3890100 0.0 1021268
30 ноября, вт
вт3023:00−1юз2793100 0.0 1020182
02:00−1юз2594100 0.0 1020116
05:00−1ююз2594100 0.0 1020111
08:00−2ю2695100 0.0 101896
11:00−1ю4137810 0.0 1017297
14:00+1ююв51375100 0.0 1015347
17:00−1ююв6168788 0.0 1012365
20:000ю61572100 0.0 1010417
1 декабря, ср
ср123:000ю71769100 0.0 1007445
02:00+1ю81883100 1.4 1006580
05:00+1ююз61486100 2.1 1006442
08:00+2ю61294100 0.1 1005381
11:00+2ю61291100 0.1 1006427
14:00+1ю61592100 0.0 1004459
17:00+1ю71884100 0.1 1002603
20:00+1ю72184100 0.2 1000658
2 декабря, чт
чт223:00+1ююв81886100 0.8 997754
02:00+2ю71681100 0.1 996726
05:00+1ю51293100 0.6 995393
08:00+1ю41195100 1.4 995363
11:00+2ююз4139197 1.4 996537
14:00+1з71077100 0.0 998971
17:00−1з6117376 0.0 1000807
20:00−3з6117473 0.0 1001789
3 декабря, пт
пт323:00−3зюз5107685 0.0 1002897
02:00−4зюз5127784 0.0 1003766
05:00−3зюз6127486 0.0 1003909
08:00−4з61372100 0.0 1005976
11:00−4зюз61371100 0.0 1007996
14:00−2зюз51072100 0.0 1007941
17:00−3юз4108397 0.0 1008517
20:00−2юз5118572 0.0 1008577